Regional Weather Roundup
Issued by NWS

Home | Current Version | Previous Version | Text Only | Print | Product List | Glossary Off
Versions: 1 2 3 4 5 6 7 8 9 10 11 12 13 14 15 16 17 18 19 20 21 22 23 24 25 26 27 28 29 30 31 32 33 34 35 36 37 38 39 40 41 42 43 44 45 46 47 48 49 50

000
ASUS45 KSLC 020410
RWRUT

UTAH REGIONAL WEATHER ROUNDUP
NATIONAL WEATHER SERVICE SALT LAKE CITY UT
1000 PM MDT WED JUL 01 2015

UTZ001>011-023>025-020500-

NORTHERN UTAH

CITY           SKY/WX    TMP DP  RH WIND       PRES   REMARKS
BRIGHAM CITY   PTCLDY    85  41  20 NW5       30.01R
HILL AFB       MOCLDY    84  53  33 SE3       30.06R
LOGAN          CLEAR     75  50  41 CALM      30.02R
OGDEN          MOCLDY    82  51  34 W3        30.02R
PROVO AIRPORT  CLOUDY    84  50  30 N7        30.02R
SALT LAKE CITY MOCLDY    88  55  32 NE5       29.99R
VERNAL         PTCLDY    77  50  38 W7        30.06R
WENDOVER       MOCLDY    90  46  22 NW6       30.02R
HEBER CITY     CLOUDY    70  50  49 E7        30.12R
WEST JORDAN    CLEAR     84  46  26 W8        30.04R

$$

UTZ012>022-026-027-020500-

SOUTHERN/CENTRAL UTAH

CITY           SKY/WX    TMP DP  RH WIND       PRES   REMARKS
BLANDING       CLOUDY    82  42  23 N3        30.15R
BRYCE CANYON   RAIN      61  50  67 NE31G44   30.41S
CEDAR CITY     CLOUDY    80  47  31 S6        30.11R
DELTA          MOCLDY    84  45  25 NE6       30.04R
HANKSVILLE     CLOUDY    90  50  25 N14G23    29.97R
MILFORD        CLOUDY    83  43  24 NE3       30.03R
MOAB/CYNLANDS  PTCLDY    88  47  24 W3        29.95R
PRICE          MOCLDY    77  49  37 NE8       30.12R
ST GEORGE      CLOUDY    90  50  25 SW17G29   29.89S
KANAB          CLOUDY    75  63  64 SE13      30.13S

$$

REGIONAL REPORTS     COLORADO/ARIZONA

CITY           SKY/WX    TMP DP  RH WIND       PRES   REMARKS
CRAIG, CO      MOCLDY    72  47  40 E6        30.16R
GRAND JUNCTION PTCLDY    84  48  28 N8        29.99R
RIFLE          PTCLDY    81  48  31 E5        30.08R
MONTROSE       MOCLDY    79  51  37 SE5       30.10R
CORTEZ         CLEAR     74  53  48 E7        30.11R
PAGE, AZ       CLOUDY    93  46  19 W14G24    30.01R
GRAND CANYON   TSTM      62  58  86 W13       30.27R
KINGMAN        MOCLDY    83  53  35 SW17      30.00R
FLAGSTAFF      CLOUDY    70  57  63 N3        30.28R

$$

REGIONAL REPORTS    NEVADA/IDAHO/WYOMING

CITY           SKY/WX    TMP DP  RH WIND       PRES   REMARKS
LAS VEGAS, NV  CLOUDY    99  52  20 SW16      29.78F HX  96
ELY            CLOUDY    76  47  35 W17G25    30.24R
ELKO           CLEAR     81  49  32 E3        30.10R
POCATELLO, ID  CLEAR     83  44  25 S12       30.00R
BURLEY         PTCLDY    76  57  51 SW10      29.98R
EVANSTON, WY   PTCLDY    73  41  31 NW6       30.26R
ROCK SPRINGS   MOCLDY    75  39  27 NW9       30.17R
KEMMERER       PTCLDY    68  45  42 N10       30.27R

$$


USA.gov is the U.S. government's official web portal to all federal, state and local government web resources and services.